ZA-AeroSat
1 42713U 98067LU 17362.79773880 .00018078 00000-0 21022-3 0 9999
2 42713 51.6360 142.0898 0002258 243.1117 116.9646 15.61790071 34858
LINK
1 42714U 98067LV 17362.80511841 .00032735 00000-0 32321-3 0 9999
2 42714 51.6337 139.8631 0002705 246.2518 113.8194 15.65591655 34998
UPSat
1 42716U 98067LX 17362.74982443 .00026763 00000-0 27414-3 0 9995
2 42716 51.6360 140.2676 0002967 321.1894 38.8888 15.64776223 35005
SpaceCube
1 42717U 98067LY 17362.84706448 .00020472 00000-0 22602-3 0 9991
2 42717 51.6358 140.9162 0003034 325.6903 34.3895 15.63038557 34240
Hoopoe
1 42718U 98067LZ 17362.79731517 .00025420 00000-0 26939-3 0 9996
2 42718 51.6362 140.5843 0002992 320.6539 39.4238 15.63942599 34247
Challenger
1 42721U 98067MA 17362.80014139 .00039098 00000-0 36242-3 0 9990
2 42721 51.6346 139.0785 0005512 300.5189 59.5263 15.67066087 33962
NJUST-1
1 42722U 98067MB 17362.77858758 .00015559 00000-0 18526-3 0 9991
2 42722 51.6367 142.7115 0005854 309.3087 50.7387 15.61289034 33915
UNSW-EC0
1 42723U 98067MC 17362.83221824 .00024039 00000-0 25492-3 0 9990
2 42723 51.6371 140.8248 0005496 304.9622 55.0856 15.63951336 33928
DUTHsat
1 42724U 98067MD 17362.83412448 .00033666 00000-0 32019-3 0 9994
2 42724 51.6353 139.3213 0004735 301.8219 58.2315 15.66505841 33864
LO-90
1 42725U 98067ME 17362.86944195 .00019799 00000-0 22570-3 0 9999
2 42725 51.6365 141.8211 0004875 309.7780 50.2784 15.62228953 33830
nSIGHT1
1 42726U 98067MF 17362.80021761 .00008840 00000-0 11880-3 0 9996
2 42726 51.6381 144.3697 0005326 317.5694 42.4886 15.58746436 33807
QBITO
1 42728U 98067MH 17362.75075359 .00021269 00000-0 23528-3 0 9996
2 42728 51.6382 141.7990 0002536 309.5677 50.5093 15.62961903 33633
Aalto-2
1 42729U 98067MJ 17362.62018622 .00022182 00000-0 24432-3 0 9993
2 42729 51.6367 142.4092 0002497 307.3649 52.7117 15.63044299 33620
SUSat
1 42730U 98067MK 17362.83721956 .00018748 00000-0 21110-3 0 9992
2 42730 51.6362 141.6019 0002641 307.8125 52.2630 15.62597166 33644
i-INSPIRE II
1 42731U 98067ML 17362.74797820 .00024648 00000-0 25825-3 0 9999
2 42731 51.6354 140.9851 0006275 257.0181 103.0114 15.64236779 33696
PolyITAN-2-SAU
1 42732U 98067MM 17362.86330626 .00022713 00000-0 24788-3 0 9998
2 42732 51.6360 141.0123 0006339 257.4185 102.6101 15.63247840 33700
SNUSAT-1
1 42733U 98067MN 17362.83837574 .00019797 00000-0 22251-3 0 9991
2 42733 51.6362 141.6006 0006304 259.9481 100.0802 15.62586959 33691
ExAlta-1
1 42734U 98067MP 17362.75372374 .00027870 00000-0 29110-3 0 9997
2 42734 51.6349 141.0251 0007219 281.8077 78.2108 15.64234089 33640
Aoxiang-1
1 42735U 98067MQ 17362.76807518 .00016026 00000-0 18949-3 0 9991
2 42735 51.6361 142.6330 0006370 306.2098 53.8306 15.61442488 35048
BeEagleSat
1 42736U 98067MR 17362.67651213 .00017757 00000-0 20476-3 0 9991
2 42736 51.6359 142.7702 0006235 303.6361 56.4038 15.62008619 33723
Atlantis
1 42737U 98067MS 17362.46849205 .00083615 00000-0 55066-3 0 9998
2 42737 51.6301 136.8141 0006469 290.9717 69.0590 15.74906604 33675
CAS-4B
1 42759U 17034B 17362.90966300 .00000414 00000-0 39177-4 0 9994
2 42759 43.0193 297.9533 0007046 122.0863 300.2541 15.09153025 29722
CAS-4A
1 42761U 17034D 17362.82950228 .00000504 00000-0 44674-4 0 9998
2 42761 43.0198 298.2730 0007510 124.7092 274.4559 15.09229307 29708
UCLSat
1 42765U 17036A 17361.89979315 .00001733 00000-0 80314-4 0 9994
2 42765 097.4261 059.3250 0010885 323.0704 036.9782 15.21387102029253
NIUSat
1 42766U 17036B 17362.12598926 .00001385 00000-0 67316-4 0 9997
2 42766 97.4263 59.1842 0014793 305.6349 54.3508 15.20019038 28544
LituanicaSAT 2
1 42768U 17036D 17362.15093922 .00002961 00000-0 13773-3 0 9996
2 42768 97.4271 59.3039 0014688 308.4542 51.5374 15.20646543 28563
Aalto 1
1 42775U 17036L 17362.72691591 .00001065 00000-0 51905-4 0 9997
2 42775 97.4258 59.9027 0012947 304.8012 55.2005 15.20433179 28591
URSA MAIOR
1 42776U 17036M 17362.72116528 .00001114 00000-0 54051-4 0 9990
2 42776 97.4262 59.9177 0012822 305.0542 54.9490 15.20494833 28594
Max Valier Sat
1 42778U 17036P 17361.94699063 .00001365 00000-0 64749-4 0 9998
2 42778 097.4282 059.3113 0011491 314.3414 045.6879 15.20940100028472
Pegasus
1 42784U 17036V 17362.11470934 .00001612 00000-0 75239-4 0 9990
2 42784 97.4263 59.5022 0011407 321.8412 38.2015 15.21225332 28505
NUDATSat
1 42787U 17036Y 17362.41548285 .00002169 00000-0 99044-4 0 9999
2 42787 97.4269 59.8654 0010940 320.9065 39.1379 15.21614958 28399
SUCHAI 1
1 42788U 17036Z 17361.90061355 .00001901 00000-0 87669-4 0 9994
2 42788 097.4264 059.3279 0011055 322.9734 037.0738 15.21422907028540
SKCUBE
1 42789U 17036AA 17361.89777365 .00001758 00000-0 81335-4 0 9992
2 42789 097.4262 059.3291 0010884 323.1169 036.9317 15.21419232028466
VZLUSAT 1
1 42790U 17036AB 17361.88180158 .00002426 00000-0 11035-3 0 9993
2 42790 097.4265 059.3469 0010528 323.5982 036.4537 15.21647258028460
VENTA 1
1 42791U 17036AC 17361.75489738 .00001740 00000-0 80364-4 0 9996
2 42791 097.4262 059.2130 0010526 324.6707 035.3831 15.21490330028436
Robusta 1B
1 42792U 17036AD 17362.14498164 .00001795 00000-0 82687-4 0 9994
2 42792 97.4260 59.6034 0010449 323.6533 36.3992 15.21553724 28517
D-SAT
1 42794U 17036AF 17362.15828888 .00000367 00000-0 37316-4 0 9990
2 42794 97.6179 58.0477 0128525 130.7661 230.4797 14.90749243 28246
BIRD-J
1 42820U 98067MU 17362.84751210 .00017799 00000-0 21116-3 0 9990
2 42820 51.6357 143.1626 0003075 235.3416 124.7288 15.61279341 27197
BIRD-G
1 42821U 98067MV 17362.41245605 .00018710 00000-0 22372-3 0 9999
2 42821 51.6359 145.5073 0003028 236.7248 123.3455 15.61034416 27102
BIRD-M
1 42822U 98067MW 17362.85859425 .00018329 00000-0 21849-3 0 9993
2 42822 51.6361 143.2382 0002999 241.2680 118.8012 15.61131104 27178
BIRD-B
1 42823U 98067MX 17362.47621001 .00018466 00000-0 22002-3 0 9993
2 42823 51.6367 145.1922 0005710 263.6519 96.3825 15.61126990 27112
BIRD-N
1 42824U 98067MY 17362.42060728 .00018502 00000-0 22135-3 0 9990
2 42824 51.6372 145.5761 0005553 263.8324 96.2037 15.61018922 27091
TechnoSat
1 42829U 17042E 17362.81125654 .00000293 00000-0 35194-4 0 9990
2 42829 97.6081 266.4483 0015490 49.9399 310.3176 14.90745580 24957
Mayak
1 42830U 17042F 17362.86151037 .00000843 00000-0 90479-4 0 9999
2 42830 97.6089 266.5482 0015702 46.9359 313.3171 14.91039997 24953
OBJECT MZ
1 42910U 98067MZ 17362.79590147 .00014657 00000-0 18757-3 0 9991
2 42910 51.6355 145.0573 0006353 289.2238 70.8067 15.59439553 20750
OBJECT NA
1 42911U 98067NA 17362.84887902 .00015213 00000-0 19192-3 0 9999
2 42911 51.6365 144.6821 0005977 283.7832 76.2495 15.59786755 20746
OBJECT NB
1 42912U 98067NB 17362.86888777 .00015321 00000-0 19554-3 0 9995
2 42912 51.6360 144.7818 0005262 296.6917 63.3537 15.59474816 20761
OBJECT NC
1 42913U 98067NC 17362.88669489 .00025933 00000-0 29463-3 0 9995
2 42913 51.6353 143.4156 0004262 300.8073 59.2501 15.62138122 20749
OBJECT ND
1 42914U 98067ND 17362.88086350 .00014081 00000-0 18211-3 0 9997
2 42914 51.6367 144.8916 0005208 291.0032 69.0403 15.59204348 20752
QIKCOM-1
1 42983U 98067NF 17362.80493880 .00004527 00000-0 73207-4 0 9996
2 42983 51.6417 147.8423 0003398 283.3971 218.4960 15.55032194 9696
AO-91
1 43017U 17073E 17362.80616727 .00000554 00000-0 48487-4 0 9998
2 43017 97.6952 296.1912 0262031 106.1266 256.8958 14.77814849 5945
